Location: Falniów
(50.3639°N, 19.9642°E)
Time: 19:00:03
(UTC+00:00)

SL-08 R/B - Pass Details

Date: 29 April 2026
Orbit: 667 x 728 km, 98.5° (Epoch: 13 May)

Event Time Altitude Azimuth Distance (km) Brightness Sun altitude
Rises 18:24:48 0° 22° (NNE) 3,163 6.8 -4.8°
Reaches altitude 10° 18:27:22 10° 33° (NNE) 2,234 5.9 -5.2°
Maximum altitude 18:31:40 30° 95° (E) 1,286 4.2 -5.8°
Drops below altitude 10° 18:35:55 10° 156° (SSE) 2,200 5.4 -6.3°
Sets 18:38:25 0° 167° (SSE) 3,107 6.2 -6.7°
